This demonstration page uses our WeatherBlox Daily Observations layout. Learn more.

Left ArrowRight Arrow

Hourly Observations for September 30, 2022

Temp ( °F °C ) Dew Point ( °F °C ) Humidity (%) Winds ( mph kmh ) Pressure ( in mb ) Visibility ( mi km ) Precip ( " mm )
12:15 am 00:15 Clear 61 16.2 45 7.3 56 56 SSE 12 19 30.02 1017 10 16 0.00 0.00
12:35 am 00:35 Clear 60 15.5 45 7.3 58 58 SSE 12 19 30.03 1017 10 16 0.00 0.00
12:55 am 00:55 Clear 60 15.4 45 7.3 58 58 SSE 13 20 30.01 1016 10 16 0.00 0.00
1:15 am 01:15 Clear 59 15.2 45 7.2 59 59 SSE 12 19 30.01 1016 10 16 0.00 0.00
1:35 am 01:35 Clear 59 15.1 45 7.1 59 59 SSE 9 15 30.01 1016 10 16 0.00 0.00
1:55 am 01:55 Clear 59 14.8 45 7.2 60 60 SSE 10 17 30.01 1016 10 16 0.00 0.00
2:15 am 02:15 Clear 58 14.6 45 7.1 61 61 SSE 13 20 30.00 1016 10 16 0.00 0.00
2:35 am 02:35 Clear 58 14.5 45 7 61 61 SSE 13 20 30.00 1016 10 16 0.00 0.00
2:55 am 02:55 Clear 58 14.3 45 7.1 62 62 SSE 13 20 30.01 1016 10 16 0.00 0.00
3:15 am 03:15 Clear 57 14.1 45 7 62 62 SSE 13 20 30.00 1016 10 16 0.00 0.00
3:35 am 03:35 Clear 57 14 45 7 63 63 SSE 13 20 29.99 1016 10 16 0.00 0.00
3:55 am 03:55 Clear 57 14 45 7 63 63 SSE 13 20 29.99 1016 10 16 0.00 0.00
4:15 am 04:15 Clear 56 13.6 45 7 64 64 SSE 14 22 29.98 1015 10 16 0.00 0.00
4:35 am 04:35 Clear 56 13.5 45 7 65 65 SSE 14 22 29.98 1015 10 16 0.00 0.00
4:55 am 04:55 Clear 56 13.6 45 7 64 64 SSE 13 20 29.98 1015 10 16 0.00 0.00
5:15 am 05:15 Clear 56 13.5 45 7 65 65 SSE 14 22 29.98 1015 10 16 0.00 0.00
5:35 am 05:35 Clear 56 13.1 45 7 66 66 SSE 9 15 30.00 1016 10 16 0.00 0.00
5:55 am 05:55 Clear 55 12.9 45 7 67 67 SSE 8 13 29.99 1015 10 16 0.00 0.00
6:15 am 06:15 Clear 55 12.5 45 7 69 69 SSE 9 15 29.99 1016 10 16 0.00 0.00
6:35 am 06:35 Clear 55 12.7 45 7 68 68 SSE 12 19 29.99 1016 10 16 0.00 0.00
6:55 am 06:55 Clear 55 13 44 6.9 66 66 SSE 10 17 29.99 1015 10 16 0.00 0.00
7:15 am 07:15 Clear 55 12.6 45 7 69 69 SSE 12 19 29.99 1016 10 16 0.00 0.00
7:35 am 07:35 Sunny 54 12.2 45 7 70 70 SSE 10 17 29.99 1016 10 16 0.00 0.00
7:55 am 07:55 Sunny 53 11.9 45 7 72 72 SSE 8 13 30.00 1016 10 16 0.00 0.00
8:15 am 08:15 Sunny 54 12.1 45 7.1 71 71 SSE 10 17 29.99 1016 10 16 0.00 0.00
8:35 am 08:35 Sunny 55 13 45 7.2 68 68 SSE 12 19 29.99 1015 10 16 0.00 0.00
8:55 am 08:55 Sunny 57 14.1 45 7.2 63 63 SSE 15 24 29.98 1015 10 16 0.00 0.00
9:15 am 09:15 Sunny 59 15.1 45 7.3 60 60 S 16 26 29.97 1015 10 16 0.00 0.00
9:35 am 09:35 Sunny 61 16.1 45 7.3 56 56 S 16 26 29.96 1015 10 16 0.00 0.00
9:55 am 09:55 Sunny 63 17 45 7.3 53 53 S 21 33 29.94 1014 10 16 0.00 0.00
10:15 am 10:15 Sunny 64 17.9 46 7.5 51 51 S 22 35 29.93 1014 10 16 0.00 0.00
10:35 am 10:35 Sunny 65 18.1 46 7.6 50 50 S 15 24 29.94 1014 10 16 0.00 0.00
10:55 am 10:55 Sunny 69 20.3 46 8 45 45 S 20 31 29.92 1013 10 16 0.00 0.00
11:15 am 11:15 Sunny 67 19.6 46 8 47 47 S 15 24 29.93 1014 10 16 0.00 0.00
11:35 am 11:35 Sunny 68 19.9 47 8.4 47 47 SSE 15 24 29.92 1013 10 16 0.00 0.00
11:55 am 11:55 Sunny 69 20.8 47 8.6 45 45 SSE 13 20 29.91 1013 10 16 0.00 0.00
12:15 pm 12:15 Partly Cloudy 69 20.8 47 8.3 45 45 SSE 15 24 29.89 1012 10 16 0.00 0.00
12:35 pm 12:35 Partly Cloudy 72 22 48 8.7 43 43 S 14 22 29.89 1012 10 16 0.00 0.00
12:55 pm 12:55 Partly Cloudy 72 22.1 47 8.6 42 42 S 13 20 29.88 1012 10 16 0.00 0.00
1:15 pm 13:15 Partly Cloudy 72 22.1 47 8.6 42 42 S 14 22 29.88 1012 10 16 0.00 0.00
1:35 pm 13:35 Partly Cloudy 73 22.5 47 8.5 41 41 S 12 19 29.88 1012 10 16 0.00 0.00
1:55 pm 13:55 Sunny 74 23.6 49 9.3 40 40 S 12 19 29.86 1011 10 16 0.00 0.00
2:15 pm 14:15 Partly Cloudy 76 24.4 49 9.3 38 38 SSE 10 17 29.84 1011 10 16 0.00 0.00
2:35 pm 14:35 Sunny 79 25.9 48 9.1 35 35 S 15 24 29.82 1010 10 16 0.00 0.00
2:55 pm 14:55 Sunny 79 26 48 8.7 33 33 S 17 28 29.82 1010 10 16 0.00 0.00
3:15 pm 15:15 Sunny 79 26.2 48 9.1 34 34 SSE 13 20 29.81 1009 10 16 0.00 0.00
3:35 pm 15:35 Sunny 82 27.6 49 9.3 32 32 SSE 21 33 29.79 1009 10 16 0.00 0.00
3:55 pm 15:55 Sunny 82 27.9 49 9.2 31 31 SE 17 28 29.78 1009 10 16 0.00 0.00
4:15 pm 16:15 Sunny 83 28.6 49 9.4 30 30 SE 21 33 29.78 1008 10 16 0.00 0.00
4:35 pm 16:35 Sunny 84 29 49 9.4 29 29 SE 17 28 29.77 1008 10 16 0.00 0.00
4:55 pm 16:55 Sunny 84 29 48 9.1 29 29 SSE 20 31 29.77 1008 10 16 0.00 0.00
5:15 pm 17:15 Sunny 84 28.8 48 9 29 29 SSE 22 35 29.76 1008 10 16 0.00 0.00
5:35 pm 17:35 Sunny 83 28.5 48 8.9 29 29 SE 18 30 29.76 1008 10 16 0.00 0.00
5:55 pm 17:55 Sunny 82 27.5 49 9.3 32 32 SSE 17 28 29.77 1008 10 16 0.00 0.00
6:15 pm 18:15 Sunny 82 27.5 49 9.5 32 32 SE 20 31 29.76 1008 10 16 0.00 0.00
6:35 pm 18:35 Sunny 80 26.4 50 10 36 36 SE 20 31 29.78 1008 10 16 0.00 0.00
6:55 pm 18:55 Sunny 77 25.1 50 10.2 39 39 SE 18 30 29.79 1009 10 16 0.00 0.00
7:15 pm 19:15 Sunny 76 24.2 50 9.9 40 40 SE 18 30 29.79 1009 10 16 0.00 0.00
7:35 pm 19:35 Clear 74 23.3 49 9.5 42 42 SE 18 30 29.81 1010 10 16 0.00 0.00
7:55 pm 19:55 Clear 73 22.5 48 9.1 42 42 SE 18 30 29.82 1010 10 16 0.00 0.00
8:15 pm 20:15 Clear 71 21.9 48 8.8 43 43 SE 18 30 29.82 1010 10 16 0.00 0.00
8:35 pm 20:35 Clear 71 21.5 48 8.7 44 44 SE 15 24 29.83 1010 10 16 0.00 0.00
8:55 pm 20:55 Clear 70 21.1 47 8.5 44 44 SE 16 26 29.85 1011 10 16 0.00 0.00
9:15 pm 21:15 Clear 69 20.5 47 8.5 46 46 SE 15 24 29.85 1011 10 16 0.00 0.00
9:35 pm 21:35 Clear 67 19.7 47 8.4 48 48 SE 15 24 29.87 1012 10 16 0.00 0.00
9:55 pm 21:55 Clear 67 19.3 47 8.2 49 49 SSE 16 26 29.88 1012 10 16 0.00 0.00
10:15 pm 22:15 Clear 66 19 46 8 49 49 SSE 15 24 29.88 1012 10 16 0.00 0.00
10:35 pm 22:35 Clear 66 19 46 7.7 48 48 SSE 14 22 29.88 1012 10 16 0.00 0.00
10:55 pm 22:55 Clear 66 18.8 46 7.5 48 48 SSE 15 24 29.90 1012 10 16 0.00 0.00
11:15 pm 23:15 Clear 65 18.2 46 7.5 50 50 SSE 14 22 29.90 1013 10 16 0.00 0.00
11:35 pm 23:35 Clear 64 18 46 7.5 50 50 SSE 14 22 29.90 1013 10 16 0.00 0.00
11:55 pm 23:55 Clear 64 17.5 46 7.5 52 52 SSE 14 22 29.92 1013 10 16 0.00 0.00

Powered by AerisWeather